Regional Weather Roundup
Issued by NWS

Home | Current Version | Previous Version | Graphics & Text | Print | Product List | Glossary On
Versions: 1 2 3 4 5 6 7 8 9 10 11 12 13 14 15 16 17 18 19 20 21 22 23 24 25 26 27
000
ASUS45 KCYS 291510
RWRWY

WYOMING REGIONAL WEATHER ROUNDUP
NATIONAL WEATHER SERVICE CHEYENNE WY
900 AM MDT FRI JUL 29 2016

NOTE:  "FAIR" INDICATES FEW OR NO CLOUDS BELOW 12,000 FEET
WITH NO SIGNIFICANT WEATHER AND/OR OBSTRUCTIONS TO VISIBILITY.

WYZ001-291600-
YELLOWSTONE NATIONAL PARK

CITY           SKY/WX    TMP DP  RH WIND       PRES   REMARKS
LK YELLOWSTONE   N/A     58  47  66 CALM      30.35S
W YELLOWSTONE  NOT AVBL

$$
WYZ002>013-054>058-071-098>099-291600-
NORTHERN WYOMING

CITY           SKY/WX    TMP DP  RH WIND       PRES   REMARKS
JACKSON        SUNNY     57  43  58 CALM      30.27
CODY           FAIR      70  50  49 N5        30.18S
GREYBULL       FAIR      71  49  45 CALM      30.11S
WORLAND        FAIR      72  48  42 CALM      30.11F
SHERIDAN       FAIR      68  53  58 CALM      30.12S
BUFFALO        FAIR      70  48  45 N7        30.16F
GILLETTE       FAIR      69  59  70 S8        30.13S
HULETT         FAIR      66  57  72 CALM      30.15F
NEWCASTLE      FAIR      66  52  59 SE7       30.16S

$$
WYZ014>020-022>026-101>103-291600-
CENTRAL WYOMING

CITY           SKY/WX    TMP DP  RH WIND       PRES   REMARKS
BIG PINEY      FAIR      63  41  44 VRB3      30.32S
PINEDALE       FAIR      63  41  45 CALM      30.33F
DUBOIS         FAIR      61  45  55 NW5       30.30F HAZE
LANDER         FAIR      67  48  50 NW7       30.20S
RIVERTON       FAIR      68  50  52 N5        30.21S
CASPER         FAIR      69  52  54 CALM      30.18F
DOUGLAS          N/A    N/A N/A N/A MISG      30.17F

$$
WYZ021-027>030-104>119-291600-
SOUTHERN WYOMING

CITY           SKY/WX    TMP DP  RH WIND       PRES   REMARKS
EVANSTON       FAIR      65  30  27 S5        30.30S
KEMMERER         N/A     64  43  45 CALM      30.31S
FORT BRIDGER   FAIR      65  37  35 W6        30.32S
ROCK SPRINGS   FAIR      65  47  52 E5        30.28F
DIXON          FAIR      64  45  50 SE3       30.30S
RAWLINS        FAIR      65  51  60 S3        30.28S
SARATOGA       FAIR      64  52  63 SE9       30.31S
LARAMIE        FAIR      61  54  77 SW10      30.30S
CHEYENNE       FAIR      67  53  61 SW12      30.24S
TORRINGTON     FAIR      68  59  73 SE6       30.14S
PINE BLUFFS    FAIR      66  59  77 SW5       30.21S

$$




USA.gov is the U.S. government's official web portal to all federal, state and local government web resources and services.